Barter Island, AK

6:08 PM AKDT on April 26, 2018 (GMT -0800)
Barter Island LRRS

Weather History for PABA - December, 2012

Change the Weather History Date:

Saturday, December 15, 2012

  Actual Average Record
Temperature  
Mean Temperature -31 °F -  
Max Temperature -29 °F 1 °F 30 °F (2008)
Min Temperature -33 °F -6 °F -36 °F (2004)
Degree Days  
Heating Degree Days 96    
Moisture  
Dew Point -35 °F    
Average Humidity 73    
Maximum Humidity 73    
Minimum Humidity 73    
Precipitation  
Precipitation 0.00 in - - ()
Sea Level Pressure  
Sea Level Pressure 29.81 in    
Wind  
Wind Speed 2 mph (SSW)    
Max Wind Speed 7 mph    
Max Gust Speed -    
Visibility 9 miles    
Events Snow    
Averages and records for this station are not official NWS values.
T = Trace of Precipitation, MM = Missing Value Source: NWS Daily Summary

Daily Weather History Graph

Daily Weather History Graph

Search for Another Location

Airport or City:

Astronomy

Dec. 31, 1969 Rise Set
Actual Time Sun does not set Sun does not set
Civil Twilight 10:25 AM AKST 2:33 PM AKST
Nautical Twilight 8:36 AM AKST 4:22 PM AKST
Astronomical Twilight 7:16 AM AKST 5:43 PM AKST
Moon 12:25 PM AKST (12/15) 5:57 PM AKST (12/15)
Length of Visible Light 4h 07m
Length of Day
0h 00m
Waxing Crescent, 9% of the Moon is Illuminated
Dec 15
Waxing Crescent
Dec 19
First Quarter
Dec 28
Full
Jan 4
Last Quarter
Jan 11
New

Hourly Weather History & Observations

Time (AKST) Temp. Windchill Dew Point Humidity Pressure Visibility Wind Dir Wind Speed Gust Speed Precip Events Conditions
12:01 AM -32.1 °F - - N/A% 29.79 in 9.0 mi Calm Calm - 0.00 in   Clear
1:01 AM -32.1 °F - - N/A% 29.80 in 10.0 mi Calm Calm - N/A   Clear
2:01 AM -32.1 °F - - N/A% 29.81 in 10.0 mi Calm Calm - N/A   Clear
3:01 AM -32.1 °F - - N/A% 29.81 in 10.0 mi Calm Calm - N/A   Clear
4:01 AM -33.0 °F -50.7 °F - N/A% 29.81 in 10.0 mi WSW 5.8 mph - N/A   Clear
5:01 AM -33.0 °F - - N/A% 29.82 in 4.0 mi Calm Calm - N/A   Haze
6:01 AM -33.0 °F -48.4 °F - N/A% 29.82 in 10.0 mi WSW 4.6 mph - N/A   Clear
7:01 AM -31.0 °F -50.3 °F - N/A% 29.82 in 10.0 mi West 6.9 mph - N/A   Clear
8:01 AM -31.0 °F -43.3 °F - N/A% 29.83 in 9.0 mi WSW 3.5 mph - 0.00 in   Clear
9:01 AM -31.0 °F -43.3 °F - N/A% 29.83 in 9.0 mi WSW 3.5 mph - 0.00 in   Clear
10:01 AM -31.0 °F -46.1 °F - N/A% 29.83 in 9.0 mi WSW 4.6 mph - 0.00 in   Clear
11:01 AM -31.0 °F -43.3 °F - N/A% 29.82 in 8.0 mi WSW 3.5 mph - 0.00 in   Clear
12:01 PM -29.9 °F - - N/A% 29.83 in 10.0 mi Calm Calm - N/A   Clear
1:01 PM -29.9 °F -42.0 °F - N/A% 29.83 in 7.0 mi SW 3.5 mph - 0.00 in Snow Light Snow
2:01 PM -32.1 °F - - N/A% 29.82 in 6.0 mi Calm Calm - 0.00 in   Haze
3:01 PM -31.0 °F - - N/A% 29.82 in 9.0 mi Calm Calm - N/A   Clear
4:01 PM -31.0 °F - - N/A% 29.81 in 10.0 mi Calm Calm - N/A   Clear
5:01 PM -33.0 °F -45.5 °F - N/A% 29.81 in 7.0 mi South 3.5 mph - N/A   Clear
6:01 PM -32.1 °F - - N/A% 29.81 in 10.0 mi Calm Calm - N/A   Clear
7:01 PM -33.0 °F - - N/A% 29.79 in 10.0 mi Calm Calm - N/A   Clear
8:01 PM -31.0 °F -46.1 °F - N/A% 29.78 in 10.0 mi ESE 4.6 mph - N/A   Clear
9:01 PM -29.9 °F -44.8 °F - N/A% 29.77 in 10.0 mi SSE 4.6 mph - N/A   Clear
10:01 PM -29.9 °F -47.1 °F - N/A% 29.77 in 10.0 mi SE 5.8 mph - N/A   Clear
11:01 PM -29.0 °F -41.0 °F -35.0 °F 73% 29.77 in 10.0 mi SSE 3.5 mph - N/A   Clear